[[{"header":{"parameterUnit":"m.s-1","parameterCategory":1,"la1":30.2991,"la2":30.254,"lo1":-89.0895,"lo2":-89.0444,"dy":0.0017,"dx":0.0017,"nx":28,"ny":28,"refTime":"2025-09-14T03:00:00:Z","depth":0,"parameterNumber":2,"parameterNumberName":"U-component_of_WINDS"},"data":[0,0,0,0,0,0,0,0,0,0,0,0,0,0,0,0,0,0,0,0,0,0,0,0,0,0,0,0,0,0,0,0,0,0,0,0,0,0,0,0,0,0,0,0,0,0,0,0,0,0,0,0,0,0,0,0,0,0,0.034,0.0341,0,0.0369,0.037,0.037,0.0387,0.0387,0.0388,0.0388,0.0417,0.0417,0.0418,0,0,0,0,0,0,0,0,0,0,0,0,0,0.0298,0.0298,0.034,0.0341,0.0341,0.0369,0.037,0.037,0.0387,0.0387,0.0388,0.0388,0.0416,0.0417,0.0418,0,0,0,0,0,0,0,0,0,0,0,0,0,0.032,0.0298,0.034,0.0353,0.0354,0.0369,0.037,0.037,0.0387,0.0387,0.0388,0.0388,0.0416,0.0417,0.0418,0.0422,0,0,0.0421,0.0422,0,0,0,0,0,0,0,0,0.0319,0.0322,0.0351,0.0352,0.0354,0.0375,0.0365,0.0387,0.0387,0.0375,0.0388,0.0388,0.0402,0.0405,0.041,0.0423,0.0425,0.0421,0.0422,0.0422,0.0423,0,0,0,0,0,0,0,0.0317,0.0321,0.0352,0.0351,0.0353,0.0357,0.036,0.0369,0.0388,0.0376,0.0377,0.038,0.0403,0.0409,0.0411,0.0425,0.0421,0.0422,0.0423,0.0423,0.0441,0.0441,0,0,0,0,0,0,0.0314,0.0319,0.0351,0.0353,0.0336,0.0357,0.0361,0.0368,0.0388,0.0391,0.038,0.0381,0.0407,0.0409,0.0412,0.0416,0.0422,0.0423,0.0424,0.0441,0.0441,0.0441,0,0,0,0,0,0,0.0313,0.0317,0.035,0.0336,0.0341,0.0358,0.0365,0.0368,0.0374,0.0391,0.0394,0.0383,0.0407,0.041,0.0419,0.0418,0.0424,0.0425,0.0441,0.0441,0.0441,0.0426,0,0,0,0,0,0,0.0312,0.0316,0.0319,0.0336,0.0341,0.0357,0.0365,0.0369,0.0376,0.0377,0.0394,0.0397,0.0407,0.0417,0.042,0.0419,0.0426,0.0442,0.0441,0.0441,0.0427,0.0426,0.0424,0,0,0,0,0,0.031,0.0314,0.0319,0.0322,0.0345,0.0357,0.036,0.0372,0.0376,0.0378,0.0388,0.0396,0.0417,0.0418,0.0421,0.0421,0.0442,0.0441,0.0441,0.0428,0.0426,0.0424,0,0,0,0,0,0,0.0296,0.0316,0.0322,0.0331,0.0342,0.036,0.0363,0.037,0.038,0.0381,0.0396,0.0399,0.0406,0.0414,0.0415,0.0424,0.043,0.0431,0.0419,0.0418,0.0416,0.0414,0.0426,0,0,0,0,0,0.0293,0.0302,0.0319,0.0326,0.0331,0.0346,0.0352,0.036,0.0372,0.0376,0.0388,0.0398,0.0407,0.0413,0.0422,0.0428,0.0431,0.0429,0.0428,0.0427,0.0427,0.0429,0.0428,0.044,0.044,0.044,0,0,0.0289,0.0301,0.0306,0.0323,0.0333,0.034,0.035,0.0358,0.0363,0.0378,0.0386,0.0395,0.0407,0.0414,0.0418,0.0421,0.0424,0.0426,0.0425,0.0426,0.0428,0.0427,0.0426,0.0439,0.044,0.044,0,0,0.0285,0.0296,0.0302,0.031,0.0324,0.0334,0.0335,0.0351,0.0357,0.0366,0.0376,0.0383,0.0398,0.0406,0.0413,0.0409,0.0417,0.0412,0.0405,0.0407,0.0406,0.0405,0.0403,0.0402,0.0412,0.0412,0.0412,0,0.0278,0.0291,0.0304,0.0311,0.0317,0.033,0.0335,0.0343,0.0359,0.0363,0.0367,0.0385,0.0394,0.0403,0.0402,0.0407,0.0407,0.041,0.0405,0.0404,0.0404,0.0402,0.0401,0.0411,0.0411,0.0411,0.0411,0,0.028,0.0289,0.0292,0.0306,0.0313,0.032,0.0332,0.0338,0.0345,0.0354,0.0361,0.0373,0.0384,0.0387,0.0394,0.0395,0.0397,0.0402,0.0409,0.0402,0.04,0.0399,0.041,0.041,0.041,0.0411,0,0,0.027,0.029,0.0291,0.0297,0.0312,0.0318,0.0324,0.0335,0.0338,0.0348,0.0353,0.0365,0.0369,0.0376,0.0385,0.0386,0.0381,0.0392,0.0392,0.0388,0.0381,0.0376,0.0375,0.0386,0.0386,0.0386,0.038,0,0.0267,0.0279,0.029,0.0297,0.0304,0.0315,0.032,0.0329,0.0337,0.0343,0.0352,0.036,0.0366,0.037,0.0372,0.0381,0.038,0.0382,0.0389,0.0389,0.0385,0.0375,0.037,0.0364,0.0379,0.0379,0.0379,0,0.0267,0.0276,0.0283,0.0296,0.0299,0.0304,0.0313,0.032,0.033,0.0335,0.0342,0.035,0.0355,0.0361,0.0368,0.0369,0.0372,0.0377,0.0377,0.0378,0.0384,0.0374,0.0362,0.0361,0.0378,0.0378,0.0378,0,0.0257,0.0271,0.0277,0.0281,0.0297,0.0299,0.0306,0.0316,0.0321,0.0329,0.0332,0.034,0.0345,0.0351,0.0361,0.0364,0.0366,0.0373,0.037,0.037,0.037,0.037,0.0357,0.0373,0.0373,0.0373,0.0373,0,0.0253,0.0257,0.0272,0.0276,0.028,0.0292,0.0295,0.0303,0.0311,0.0316,0.0326,0.033,0.0343,0.0348,0.0356,0.0359,0.0361,0.0365,0.0367,0.0364,0.0363,0.0366,0.0367,0.0373,0.0373,0.0373,0.0373,0,0.0243,0.0253,0.026,0.0273,0.0276,0.0279,0.029,0.0293,0.0301,0.0306,0.0308,0.032,0.0326,0.0337,0.0346,0.0351,0.0353,0.0357,0.035,0.0351,0.0347,0.0347,0.0336,0.0334,0.0352,0.0351,0.0351,0,0.0239,0.0243,0.0256,0.0259,0.0265,0.0271,0.0276,0.0286,0.0291,0.0301,0.0303,0.031,0.0316,0.0325,0.0334,0.0341,0.0344,0.034,0.0346,0.0342,0.0343,0.0342,0.0342,0.0339,0.0338,0.0338,0.0338,0,0.0232,0.0236,0.0243,0.0251,0.0256,0.0262,0.0269,0.0272,0.0284,0.0288,0.0294,0.0299,0.0308,0.0314,0.0321,0.0327,0.0334,0.0336,0.0336,0.0332,0.0327,0.0329,0.0345,0.0336,0.0336,0.0337,0.0337,0.0337,0.0225,0.0227,0.0236,0.0243,0.0249,0.0254,0.0258,0.0265,0.0271,0.0278,0.0284,0.029,0.0298,0.0309,0.0314,0.0317,0.0321,0.032,0.032,0.032,0.0318,0.0327,0.0319,0.0319,0.0319,0.0319,0.0319,0,0.0217,0.0223,0.0228,0.0237,0.0242,0.0247,0.0255,0.0258,0.0263,0.027,0.0275,0.0281,0.0286,0.0295,0.0301,0.0302,0.0305,0.0303,0.0303,0.0304,0.0315,0.0314,0.0301,0.0301,0.0301,0.0301,0.0301,0.0301,0.0214,0.0218,0.0223,0.0229,0.0235,0.024,0.0244,0.0249,0.0254,0.026,0.0264,0.027,0.0277,0.0283,0.0288,0.029,0.0292,0.0288,0.0292,0.0302,0.0304,0.0305,0.0305,0.0289,0.0289,0.028,0.028,0.028]},{"header":{"parameterUnit":"m.s-1","parameterCategory":1,"la1":30.2991,"la2":30.254,"lo1":-89.0895,"lo2":-89.0444,"dy":0.0017,"dx":0.0017,"nx":28,"ny":28,"refTime":"2025-09-14T03:00:00:Z","depth":0,"parameterNumber":3,"parameterNumberName":"V-component_of_WINDS"},"data":[0,0,0,0,0,0,0,0,0,0,0,0,0,0,0,0,0,0,0,0,0,0,0,0,0,0,0,0,0,0,0,0,0,0,0,0,0,0,0,0,0,0,0,0,0,0,0,0,0,0,0,0,0,0,0,0,0,0,3.014,3.014,0,3.0117,3.0116,3.0116,3.0117,3.0117,3.0118,3.0118,3.0091,3.009,3.0089,0,0,0,0,0,0,0,0,0,0,0,0,0,3.0182,3.0181,3.014,3.014,3.014,3.0117,3.0116,3.0116,3.0117,3.0118,3.0118,3.0118,3.0092,3.009,3.0089,0,0,0,0,0,0,0,0,0,0,0,0,0,3.0162,3.0181,3.014,3.0137,3.0137,3.0117,3.0116,3.0116,3.0117,3.0118,3.0118,3.0119,3.0092,3.0091,3.0089,3.0069,0,0,3.0084,3.0084,0,0,0,0,0,0,0,0,3.0163,3.016,3.0138,3.0138,3.0137,3.012,3.0121,3.01,3.0117,3.0124,3.0118,3.0119,3.01,3.0098,3.0093,3.0068,3.0067,3.0084,3.0083,3.0083,3.0082,0,0,0,0,0,0,0,3.0164,3.0161,3.0131,3.0138,3.0137,3.0136,3.0134,3.0117,3.011,3.0124,3.0124,3.0121,3.01,3.0094,3.0092,3.0066,3.0084,3.0083,3.0082,3.0081,3.0021,3.002,0,0,0,0,0,0,3.0167,3.0162,3.0131,3.013,3.0152,3.0135,3.0132,3.0125,3.011,3.0108,3.0121,3.0121,3.0096,3.0094,3.0091,3.0065,3.0083,3.0081,3.008,3.0021,3.0021,3.002,0,0,0,0,0,0,3.0168,3.0164,3.0132,3.0146,3.0142,3.0134,3.0126,3.0124,3.0118,3.0108,3.0106,3.0116,3.0097,3.0093,3.0074,3.0064,3.008,3.0079,3.0022,3.0021,3.002,3.0013,0,0,0,0,0,0,3.0169,3.0164,3.0158,3.0146,3.0141,3.0117,3.0125,3.0124,3.0116,3.0116,3.0103,3.0101,3.0097,3.0076,3.0072,3.0062,3.0078,3.0023,3.0022,3.002,3.0014,3.0012,3.001,0,0,0,0,0,3.017,3.0157,3.0158,3.0154,3.0133,3.0117,3.0114,3.011,3.0115,3.0108,3.01,3.0102,3.0066,3.0074,3.007,3.0059,3.0024,3.0022,3.0021,3.0015,3.0012,3.001,0,0,0,0,0,0,3.0167,3.0155,3.0156,3.0138,3.0129,3.0117,3.0108,3.0108,3.0096,3.0096,3.0091,3.0088,3.0068,3.0062,3.0072,3.0037,3.0045,3.0043,3.0042,3.0039,3.0037,3.0039,3.0077,0,0,0,0,0,3.0165,3.0153,3.0143,3.0128,3.0123,3.0116,3.0109,3.0107,3.0096,3.0092,3.0083,3.0072,3.0057,3.0048,3.0035,3.0013,3.0009,3.0003,3.0001,2.9999,2.9997,2.9982,2.9978,3.0015,3.0015,3.0015,0,0,3.0159,3.0151,3.0144,3.0128,3.012,3.0106,3.0113,3.0099,3.0089,3.0089,3.007,3.0063,3.005,3.0029,3.0019,3.0023,2.9986,2.9997,2.9996,2.9994,2.998,2.9976,2.9973,3.0014,3.0014,3.0014,0,0,3.0141,3.0135,3.0121,3.0113,3.0101,3.0096,3.0092,3.008,3.0076,3.0057,3.0056,3.0043,3.0019,3.0009,3.0001,2.9977,2.9976,2.9972,2.9961,2.9947,2.9944,2.9941,2.993,2.9927,2.997,2.997,2.997,0,3.0136,3.0117,3.0114,3.01,3.0091,3.0091,3.0076,3.0068,3.0051,3.0045,3.0049,3.0018,3.0009,2.9984,2.9978,2.9972,2.9966,2.9974,2.9945,2.9942,2.9939,2.9929,2.9925,2.997,2.997,2.997,2.997,0,3.0109,3.0096,3.0086,3.007,3.0061,3.0046,3.0039,3.003,3.0028,3.0021,3.0,2.9989,2.9973,2.9967,2.9965,2.994,2.9943,2.9946,2.9954,2.9935,2.9925,2.9922,2.9969,2.9969,2.9969,2.9969,0,0,3.009,3.0072,3.0068,3.006,3.0045,3.0034,3.0018,3.0002,2.9993,2.9981,2.9966,2.9945,2.9947,2.9938,2.9934,2.9922,2.99,2.9926,2.9926,2.992,2.987,2.9866,2.9862,2.99,2.99,2.9899,2.987,0,3.007,3.0043,3.0038,3.0014,3.0,2.9999,2.9984,2.9973,2.9966,2.9952,2.9944,2.9928,2.9934,2.9928,2.9915,2.9906,2.989,2.9908,2.9884,2.9883,2.9886,2.9857,2.9854,2.9827,2.9866,2.9866,2.9865,0,3.0043,3.003,3.0005,2.999,2.9984,2.9971,2.9955,2.9942,2.9928,2.9924,2.9912,2.9909,2.989,2.9899,2.9871,2.9883,2.9873,2.9867,2.9865,2.9862,2.9872,2.9851,2.9819,2.9814,2.9859,2.986,2.986,0,3.0029,3.0006,2.9987,2.998,2.9963,2.9954,2.9946,2.9932,2.9922,2.9907,2.99,2.9883,2.9873,2.9858,2.985,2.9858,2.9822,2.9831,2.9816,2.9816,2.9808,2.9808,2.9772,2.9804,2.9804,2.9804,2.9804,0,3.0006,2.999,2.998,2.9968,2.9949,2.9943,2.9924,2.9916,2.9903,2.9888,2.9886,2.9871,2.9862,2.9845,2.9839,2.9815,2.9811,2.9805,2.9803,2.9805,2.9805,2.9797,2.9798,2.9803,2.9803,2.9803,2.9803,0,2.9988,2.9981,2.9959,2.9944,2.994,2.9926,2.9913,2.99,2.9892,2.9873,2.9868,2.9856,2.9836,2.9826,2.9802,2.9797,2.9769,2.977,2.9774,2.9773,2.9758,2.9759,2.9714,2.9706,2.9745,2.9745,2.9744,0,2.9973,2.9961,2.9944,2.9934,2.9926,2.991,2.99,2.9892,2.9881,2.9862,2.9851,2.9831,2.9815,2.9782,2.977,2.975,2.9749,2.9734,2.9746,2.9746,2.9746,2.9746,2.9743,2.9732,2.9732,2.9731,2.9731,0,2.9948,2.9944,2.993,2.9913,2.99,2.9886,2.9873,2.9864,2.9854,2.9841,2.9821,2.9808,2.9782,2.9761,2.974,2.973,2.9728,2.9728,2.9723,2.9723,2.9726,2.9722,2.9767,2.9729,2.9729,2.9729,2.9729,2.9729,2.9929,2.9917,2.9903,2.9886,2.9875,2.9861,2.9848,2.9838,2.9822,2.9801,2.9797,2.9775,2.9757,2.9729,2.9718,2.9699,2.9702,2.9695,2.9693,2.9691,2.9689,2.973,2.9695,2.9695,2.9695,2.9695,2.9695,0,2.9902,2.9892,2.9877,2.9857,2.9843,2.9843,2.9827,2.9815,2.9796,2.9781,2.9764,2.9739,2.9718,2.9704,2.9682,2.9669,2.9667,2.9663,2.9663,2.966,2.9689,2.9694,2.9665,2.9665,2.9665,2.9665,2.9665,2.9665,2.9886,2.9864,2.9859,2.983,2.982,2.9799,2.979,2.9776,2.9764,2.9737,2.9719,2.971,2.9694,2.9671,2.965,2.9646,2.9637,2.9633,2.9629,2.9655,2.9659,2.9662,2.9667,2.9632,2.9631,2.9601,2.9601,2.9601]}]]